Location: Marcone
(41.3333°N, 14.6667°E)
Time: 23:07:50
(UTC+00:00)

Daily predictions for brighter satellites

Satellite Brightness Start Highest point End
(mag) Time Altitude Azimuth Time Altitude Azimuth Time Altitude Azimuth
Meteor 1-18 Rocket 4.4 18:56:57 10° S 19:02:46 64° E 19:08:37 10° NNE
USA 215 3.4 18:56:55 10° SE 19:03:27 82° SW 19:10:01 10° NW
SL-08 R/B 3.9 19:05:18 10° N 19:09:55 63° WNW 19:14:26 10° SSW
NOSS 3-4 (A) 3.2 19:05:44 10° SSW 19:10:52 55° ESE 19:16:22 10° NE
NOSS 3-4 (C) 3.2 19:05:51 10° SSW 19:10:59 54° ESE 19:16:28 10° NE
MOS 1 4.5 19:08:44 10° SSE 19:14:18 62° ENE 19:19:53 10° N
Meteor 2-4 Rocket 4.3 19:09:08 10° SSW 19:15:00 69° W 19:20:55 10° N
Delta 2 Rocket 4.4 19:13:24 10° WSW 19:16:49 29° SSW 19:20:24 10° SE
Okean-O 3.3 19:13:27 10° SE 19:17:30 38° ENE 19:21:34 10° N
Cosmos 1110 Rocket 4.2 19:12:22 10° NNW 19:17:34 61° ENE 19:22:40 10° SSE
Cosmos 1934 Rocket 4.3 19:11:57 10° N 19:18:20 75° W 19:24:38 10° S
COSMOS 2428 2.8 19:14:53 10° NNW 19:20:38 89° WSW 19:26:21 10° SSE
Cosmos 1818 4.1 19:16:16 10° S 19:21:09 36° ESE 19:26:04 10° NE
Cosmos 1331 Rocket 4.1 19:16:36 10° NNW 19:21:42 61° ENE 19:26:45 10° SSE
USA 305 2.9 19:18:41 10° SSW 19:22:27 43° SE 19:26:00 10° ENE
Cosmos 1633 Rocket 4.3 19:20:42 10° NNE 19:24:14 24° ENE 19:27:33 11° SE
Lacrosse 4 Rocket 3.7 19:22:31 10° NNE 19:24:44 14° NE 19:26:57 10° ENE
Cosmos 2297 Rocket 2.2 19:24:00 10° SSW 19:29:37 72° ESE 19:35:16 10° NNE
Cosmos 1408 Rocket 4.3 19:26:02 10° NNW 19:30:12 51° W 19:34:20 10° S
Cosmos 614 Rocket 4.3 19:27:04 10° S 19:31:59 46° ESE 19:36:53 10° NNE
Cosmos 1500 Rocket 4.1 19:27:58 10° NNW 19:32:21 61° W 19:36:42 10° S
Sich 1 4.0 19:28:40 10° NNW 19:32:40 45° W 19:36:38 10° SSW
Cosmos 1328 Rocket 4.1 19:29:31 10° SSE 19:33:35 39° E 19:37:41 10° NNE
Ariane Rocket 4.5 19:29:54 10° ESE 19:33:49 23° ENE 19:37:44 10° NNE
ARIANE 6 FM1 Upper Stage 3.2 19:32:39 10° NNW 19:36:41 49° NE 19:40:10 14° ESE
NOSS 0 Rocket 4.0 19:31:33 10° NNW 19:37:48 88° ENE 19:43:43 11° SSE
Cosmos 1455 2.8 19:38:46 10° NNE 19:41:02 23° ENE 19:42:16 17° ESE
CZ-4B R/B 4.1 19:41:00 10° S 19:45:57 58° W 19:51:04 10° NNW
ATLAS 2A CENTAUR R/B 4.3 19:36:27 10° WSW 19:46:47 23° SW 19:50:35 12° SSE
Meteor PRIRODA 3.8 19:44:39 10° S 19:47:28 47° W 19:50:19 10° NNW
MetOp-B 4.4 19:42:58 10° S 19:48:18 72° WSW 19:53:40 10° NNW
Cosmos 1758 4.4 19:46:35 10° NNE 19:49:44 26° ENE 19:51:37 17° ESE
Cosmos 1727 Rocket 4.0 19:46:11 10° S 19:52:16 65° E 19:58:23 10° NNE
ATLAS CENTAUR R/B 2.6 19:52:01 10° N 19:55:17 26° NE 19:57:42 14° E
Cosmos 1452 Rocket 3.6 19:50:02 10° NNW 19:55:18 78° WSW 19:59:53 14° SSE
SL-16 R/B 3.8 19:51:15 10° N 19:55:40 23° NE 19:59:47 11° ESE
Helios 1A 3.0 19:52:44 10° N 19:56:42 72° WNW 20:00:35 10° SSW
CZ-4 R/B 4.1 19:56:14 10° WSW 19:57:46 12° W 19:59:17 10° WNW
IRS-1C Rocket 4.5 19:54:14 17° SE 19:58:09 51° ENE 20:03:14 10° N
Cosmos 2227 Rocket 2.3 19:52:44 10° S 19:58:12 56° ESE 20:03:43 10° NNE
Terra 1.8 19:54:12 12° SSE 19:58:30 84° WSW 20:03:14 10° NNW
SPOT 5 4.2 19:55:56 10° SSW 19:59:58 33° W 20:04:13 10° NNW
Cosmos 1515 Rocket 4.4 19:57:53 19° SE 20:00:20 33° E 20:04:17 10° NNE
COSMOS 2455 3.1 19:57:01 10° NNW 20:03:00 62° ENE 20:07:19 19° SE
Cosmos 2263 Rocket 3.1 19:59:46 17° SSE 20:03:06 30° ESE 20:07:57 10° NE
Cosmos 2100 Rocket 4.2 19:58:16 10° N 20:04:18 53° ENE 20:08:37 19° SSE
RESURS DK-1 2.8 20:03:32 18° S 20:06:04 38° ESE 20:09:48 10° NE
USA 276 2.0 20:04:35 10° NW 20:06:31 41° NNE 20:07:05 32° ENE
Okean O Rocket 2.8 20:07:06 10° SSW 20:11:06 38° W 20:15:08 10° NNW
Cosmos 1980 3.7 20:05:53 10° NNW 20:11:34 80° WSW 20:15:38 19° SSE
Spot 2 Rocket 3.5 20:07:49 18° SSE 20:11:40 86° ENE 20:16:46 10° NNW
Cosmos 1300 4.0 20:08:56 10° NNW 20:11:40 28° W 20:14:23 10° SSW
Helios 1B rocket 4.3 20:12:59 10° SSW 20:15:55 23° W 20:18:53 10° NW
ERS-1 Rocket 3.9 20:17:12 10° S 20:21:57 43° W 20:26:44 10° NNW
Cosmos 1437 Rocket 2.9 20:21:19 33° SE 20:22:19 43° E 20:25:43 10° NNE
Cosmos 921 Rocket 3.2 20:18:25 10° SSW 20:22:38 71° WNW 20:26:57 10° NNE
Cosmos 2219 3.8 20:20:35 22° SSE 20:23:38 38° ESE 20:28:54 10° NE
USA 238 DEB 4.1 20:17:36 10° NW 20:25:07 74° WSW 20:30:45 22° SSE
USA 238 4.1 20:17:42 10° NW 20:25:14 75° WSW 20:30:51 22° SSE
SL-14 R/B 3.8 20:27:12 13° SSW 20:30:35 56° W 20:34:27 10° N
Cosmos 2123 Rocket 4.0 20:26:43 19° S 20:31:14 67° E 20:37:27 10° NNE
Geosat 4.2 20:26:59 10° NE 20:31:50 48° ESE 20:34:33 24° S
Cosmos 2082 4.4 20:31:12 27° SE 20:33:12 34° ESE 20:38:17 10° NE
Cosmos 967 Rocket 4.5 20:29:47 10° NNW 20:36:11 86° WSW 20:39:52 27° SSE
USA 290 3.7 20:41:32 24° ENE 20:41:32 24° ENE 20:43:26 10° NE
Cosmos 1809 Rocket 4.4 20:38:14 17° S 20:43:03 90° SSW 20:49:14 10° N
Cosmos 2237 Rocket 3.0 20:39:53 10° NW 20:45:16 45° WSW 20:48:43 21° SSW
Cosmos 1459 Rocket 4.1 20:39:05 10° N 20:45:26 82° W 20:49:28 24° S
Meteor 2-14 Rocket 4.4 20:41:09 19° S 20:45:44 89° ESE 20:51:54 10° N
SL-4 R/B 2.2 20:47:40 45° SE 20:47:47 45° SE 20:51:41 10° ENE
Cosmos 1140 Rocket 4.1 20:46:57 32° SE 20:47:58 35° E 20:52:35 10° NE
Meteor 1-15 Rocket 4.1 20:44:40 10° N 20:50:19 88° E 20:53:04 32° S
Cosmos 1802 Rocket 4.0 20:43:56 10° N 20:50:24 83° E 20:53:55 29° S
USA 305 4.5 20:47:37 10° W 20:51:07 31° NNW 20:54:13 10° NNE
Cosmos 2061 Rocket 4.4 20:45:55 10° N 20:51:59 48° ENE 20:54:39 31° SE
Cosmos 1953 3.0 20:52:28 10° N 20:55:55 34° ENE 20:56:11 33° E
SL-08 R/B 4.4 20:52:57 10° N 20:59:01 70° E 21:01:43 35° SSE
Meteor 1-22 Rocket 4.5 20:57:06 10° NNW 21:02:22 59° W 21:05:15 27° SSW
Lacrosse 4 Rocket 1.4 20:58:56 10° NNW 21:03:09 71° WSW 21:04:06 50° S
DNEPR-1 R/B 4.2 20:57:25 10° SW 21:03:44 81° WNW 21:08:54 10° NNE
Cosmos 2016 Rocket 4.0 21:03:11 10° N 21:09:33 84° W 21:12:39 33° S
Cosmos 407 Rocket 4.3 21:10:51 30° ESE 21:11:00 30° E 21:15:26 10° NE
Ariane Rocket 3.8 21:09:58 26° SSW 21:12:24 44° W 21:17:15 10° NNW
Cosmos 1844 Rocket 4.1 21:13:11 22° E 21:13:11 22° E 21:17:16 10° NE
Cosmos 2228 Rocket 4.2 21:17:10 28° E 21:17:10 28° E 21:20:56 10° NNE
CZ-4C R/B 4.1 21:16:17 10° NNE 21:18:25 31° NE 21:18:25 31° NE
GP-B 3.1 21:18:38 10° N 21:23:02 77° W 21:23:59 53° SSW
Cosmos 1269 Rocket 4.1 21:20:32 30° SSW 21:23:09 78° WNW 21:28:28 10° NNE
Cosmos 1707 Rocket 4.1 21:28:01 40° E 21:28:01 40° E 21:31:57 10° NNE
Cosmos 2084 Rocket 3.3 21:24:53 10° NW 21:28:59 63° WSW 21:29:07 63° SW
Meteor 1-12 Rocket 4.4 21:23:27 10° NNW 21:29:21 74° W 21:31:34 40° S
ATLAS CENTAUR R/B 2.6 21:28:03 10° WNW 21:31:05 26° WSW 21:31:05 26° WSW
Cosmos 489 Rocket 4.4 21:26:43 10° NNW 21:32:56 84° WSW 21:35:02 44° S
Cosmos 1933 Rocket 4.4 21:29:30 10° NNW 21:33:38 41° W 21:34:40 35° SW
IRIDIUM 103 4.3 21:33:34 53° SSE 21:34:40 69° E 21:39:51 10° N
ATLAS 2AS CENTAUR R/B 4.1 21:37:43 20° ESE 21:37:43 20° ESE 21:42:18 10° ENE
ALOS 2 4.2 21:37:03 23° E 21:37:43 23° ENE 21:41:12 10° NNE
SL-16 R/B 2.5 21:34:36 10° NNW 21:40:08 57° WSW 21:41:38 43° SSW
Cosmos 2227 Rocket 4.4 21:38:10 10° WSW 21:42:36 23° NW 21:47:03 10° N
Cosmos 2344 4.4 21:36:26 10° NNW 21:44:35 59° NE 21:52:06 22° ESE
Cosmos 1733 Rocket 3.2 21:40:34 10° N 21:44:54 58° E 21:45:01 58° E
Cosmos 2263 Rocket 3.4 21:41:31 10° SW 21:46:49 40° WNW 21:52:10 10° N
Cosmos 2233 Rocket 4.3 21:40:59 10° NNW 21:47:12 61° W 21:49:37 37° SSW
Cosmos 1869 Rocket 4.2 21:43:47 10° NNW 21:47:58 45° W 21:48:34 42° WSW
Okean 2 3.5 21:50:02 60° W 21:50:06 60° W 21:53:59 10° N
Okean 3 3.6 21:50:57 59° WSW 21:51:14 61° W 21:55:17 10° N
IRIDIUM 106 4.3 21:51:50 56° SSW 21:52:57 82° W 21:58:11 10° N
CZ-2C R/B 3.5 21:51:04 10° NNE 21:55:38 87° ESE 21:56:01 75° S
Aureole 3 Rocket 3.7 21:54:50 10° N 21:57:14 36° NE 21:57:14 36° NE
SeaSat 1 4.4 21:57:55 15° E 22:00:22 21° NE 22:04:00 10° N
ASTEX 1 3.3 21:56:41 10° N 22:01:40 83° W 22:02:22 65° SSW
Cosmos 1943 3.2 21:56:06 10° NNW 22:01:50 75° ENE 22:03:04 55° SE
MetOp-A 3.7 22:10:28 74° SSW 22:10:49 80° WSW 22:15:27 10° NNW
Cosmos 1862 Rocket 3.7 22:11:30 65° W 22:11:42 66° W 22:16:06 10° N
Cosmos 1763 Rocket 3.5 22:06:39 10° NNW 22:11:46 66° ENE 22:12:23 60° ESE
Cosmos 1271 Rocket 4.0 22:16:29 32° NE 22:16:29 32° NE 22:18:46 10° NNE
Cosmos 1603 4.1 22:13:48 10° NNW 22:19:19 55° ENE 22:20:41 44° ESE
Okean 1-7 3.0 22:19:41 72° NNW 22:19:41 72° NNW 22:23:29 10° N
ARIANE 5 R/B 2.7 22:20:49 64° W 22:20:49 64° W 22:25:11 10° NNW
SL-8 R/B 3.8 22:18:46 10° WNW 22:22:54 61° W 22:22:54 61° W
SL-4 R/B 3.4 22:22:01 10° W 22:25:52 37° NNW 22:29:36 10° NE
Spot 4 3.7 22:30:33 73° WSW 22:30:43 74° WSW 22:35:34 10° NNW
SJ 16-02 2.6 22:38:57 31° ENE 22:38:57 31° ENE 22:41:58 10° NE
PSLV R/B 3.6 22:34:28 10° NNE 22:38:27 73° NE 22:38:27 73° NE
NOSS 3-1 (C) 4.1 22:32:33 10° NW 22:40:03 84° WSW 22:43:29 42° SSE
Cosmos 1300 Rocket 4.5 22:39:33 10° N 22:43:39 39° ENE 22:43:39 39° ENE
Cosmos 676 Rocket 4.0 22:44:37 63° ESE 22:44:44 63° ESE 22:49:56 10° NNE
USA 307 3.6 22:54:11 43° N 22:54:11 43° N 22:57:27 10° NE
Cosmos 1844 Rocket 3.2 22:54:47 39° WSW 22:56:29 53° WNW 23:02:02 10° NNE
Cosmos 1703 Rocket 3.8 22:59:24 62° NW 22:59:24 62° NW 23:03:21 10° N
Cosmos 2251 Rocket 4.4 22:59:04 36° WSW 23:00:28 44° WNW 23:05:36 10° N
Cosmos 1844 4.1 22:59:50 42° WSW 23:01:17 54° WNW 23:06:45 10° NNE
USA 234 3.2 22:56:02 10° NE 23:02:31 65° SE 23:03:50 54° S
Cosmos 1782 Rocket 3.8 22:59:44 10° N 23:03:54 63° ENE 23:03:54 63° ENE
USA 59 Rocket 0.8 23:04:10 10° NNW 23:07:49 47° NE 23:08:27 44° E
Cosmos 1954 Rocket 4.2 23:07:46 54° WSW 23:08:31 60° WNW 23:13:40 10° NNE
Tsikada Rocket 3.9 23:12:11 59° SSW 23:13:27 84° W 23:19:44 10° N
ALOS 2 3.9 23:14:27 31° W 23:14:27 31° W 23:17:49 10° NNW
ATLAS 3B R/B 4.4 23:07:18 10° NNW 23:14:22 34° NE 23:21:12 10° ESE
Cosmos 540 Rocket 4.2 23:10:01 10° NW 23:14:32 39° W 23:14:32 39° W
Meteor 1-24 Rocket 3.9 23:13:40 58° SW 23:14:48 73° W 23:20:46 10° N
Cosmos 304 Rocket 4.3 23:22:36 47° E 23:22:36 47° E 23:26:57 10° NNE
YAOGAN 20A 4.5 23:22:54 67° S 23:23:35 77° ESE 23:29:38 10° NE
Cosmos 1606 4.4 23:21:48 10° N 23:23:21 25° NNE 23:23:21 25° NNE
YAOGAN 20B 4.5 23:24:46 67° S 23:25:25 75° ESE 23:31:27 10° NE
Cosmos 468 Rocket 4.4 23:20:44 10° NNW 23:25:26 45° W 23:25:26 45° W
Cosmos 841 Rocket 3.3 23:21:45 10° NNW 23:27:01 85° ENE 23:27:33 72° SE
ATLAS 2AS CENTAUR R/B 2.7 23:25:05 44° SW 23:27:37 81° NW 23:34:38 10° NNE
NOSS 3-1 (A) 4.0 23:20:53 10° NW 23:28:25 84° WSW 23:32:25 37° SSE
Cosmos 2279 Rocket 4.2 23:22:37 10° N 23:28:46 61° E 23:30:32 44° SE
Meteor 2-5 Rocket 4.1 23:27:46 50° WSW 23:28:58 60° WNW 23:34:52 10° N
BREEZE-M DEB (TANK) 3.0 23:20:41 10° WSW 23:29:35 86° NNW 23:32:36 10° ENE
H-2A R/B 3.6 23:31:18 31° ENE 23:31:18 31° ENE 23:34:27 10° N
Cosmos 2242 Rocket 3.7 23:31:50 68° ENE 23:31:50 68° ENE 23:36:07 10° NNE
Cosmos 1850 Rocket 4.0 23:32:32 63° SE 23:32:50 64° ESE 23:37:56 10° NNE
SeaSat 1 2.5 23:37:33 58° WSW 23:37:33 58° WSW 23:42:13 10° NNW
IDEFIX/ARIANE 42P 4.3 23:36:19 10° NE 23:40:09 20° E 23:41:28 19° ESE
Cosmos 1833 Rocket 3.5 23:35:56 10° NNW 23:41:19 45° ENE 23:44:08 26° ESE
